Regional Weather Roundup
Issued by NWS Albany, NY

Home | Current Version | Previous Version | Text Only | Print | Product List | Glossary On
Versions: 1 2 3 4 5 6 7 8 9 10 11 12 13 14 15 16 17 18 19 20 21 22 23 24 25 26 27 28 29 30 31 32 33 34 35 36 37 38 39 40 41 42 43 44 45 46 47 48 49 50
000
ASUS41 KALY 241410
RWRALY

NEW YORK STATE HOURLY WEATHER ROUNDUP
NATIONAL WEATHER SERVICE ALBANY NY
1000 AM EDT THU JUL 24 2014

NOTE: "FAIR" INDICATES FEW OR NO CLOUDS BELOW 12,000 FEET WITH NO
SIGNIFICANT WEATHER AND/OR NO OBSTRUCTIONS TO VISIBILITY.

NYZ032-033-038>043-046>054-057>066-NYZ062>081-241500-
EAST


CITY           SKY/WX    TMP DP  RH WIND       PRES   REMARKS
ALBANY         PTSUNNY   69  57  65 NE12      29.92S
GLENS FALLS    MOSUNNY   66  52  60 N7        29.92F
POUGHKEEPSIE   MOSUNNY   71  60  68 N12       29.88R
NEWBURGH       PTSUNNY   72  64  78 NE12      29.90R
MONTGOMERY     CLOUDY    73  60  63 NE13      29.88S
WHITE PLAINS   PTSUNNY   72  61  68 N13G21    29.86S
ISLIP          PTSUNNY   77  63  61 NW13      29.83R
NEW YORK CITY  CLOUDY    74  62  66 N10       29.85S
CENTRAL PARK   CLOUDY    74  63  68 NE6       29.89R
$$

NYZ005>009-017-018-044>046-055-056-241500-
CENTRAL


CITY           SKY/WX    TMP DP  RH WIND       PRES   REMARKS
FULTON         MOSUNNY   64  49  57 N10       30.01S
SYRACUSE       MOSUNNY   67  52  58 NW8       29.99S
ROME           SUNNY     64  53  67 W7        29.98F
ELMIRA         MOSUNNY   67  55  65 N8        30.00R
BINGHAMTON     MOSUNNY   64  55  72 N7        29.98S
MONTICELLO     PTSUNNY   68  55  64 N15       29.94S
$$

NYZ026>034-041>043-241500-
NORTH


CITY           SKY/WX    TMP DP  RH WIND       PRES   REMARKS
WATERTOWN      MOSUNNY   65  45  48 N9        30.01S
FORT DRUM      NOT AVBL
MASSENA        SUNNY     63  50  62 NW6       30.00S
SARANAC LAKE   MOSUNNY   60  51  72 VRB5      29.97R
PLATTSBURGH    SUNNY     65  49  56 N8        29.96R
$$

NYZ001>004-010>016-019>021-241500-
WEST


CITY           SKY/WX    TMP DP  RH WIND       PRES   REMARKS
NIAGARA FALLS  MOSUNNY   66  48  52 NE13      30.06S
BUFFALO        MOSUNNY   66  49  54 N8        30.06S
DUNKIRK        PTSUNNY   67  51  56 N8        30.06S
JAMESTOWN      PTSUNNY   61  52  72 NE9       30.06S
WELLSVILLE     PTSUNNY   64  51  62 NE8       30.06R
ROCHESTER      PTSUNNY   64  48  56 NE10G16   30.05S
PENN YAN       PTSUNNY   65  53  65 NW9       30.03R
$$

             KEY
       WCI = WIND CHILL INDEX
       VSB = VISIBILITY
       HX  = HEAT INDEX
$$



USA.gov is the U.S. government's official web portal to all federal, state and local government web resources and services.